Friday Harbor, WA

12:01 PM PDT on June 22, 2017 (GMT -0700)
Friday Harbor

Weather History for KFHR - January, 2014

Change the Weather History Date:

Monday, January 27, 2014

  Actual Average Record
Temperature  
Mean Temperature 40 °F -  
Max Temperature 43 °F 44 °F 55 °F (2016)
Min Temperature 37 °F 36 °F 24 °F (1997)
Degree Days  
Heating Degree Days 25    
Moisture  
Dew Point 38 °F    
Average Humidity 92    
Maximum Humidity 97    
Minimum Humidity 81    
Precipitation  
Precipitation 0.00 in - - ()
Sea Level Pressure  
Sea Level Pressure 30.19 in    
Wind  
Wind Speed 2 mph (NNE)    
Max Wind Speed 7 mph    
Max Gust Speed -    
Visibility 6 miles    
Events      
Averages and records for this station are not official NWS values.
T = Trace of Precipitation, MM = Missing Value Source: NWS Daily Summary

Daily Weather History Graph

Daily Weather History Graph

Search for Another Location

Airport or City:

Trip Planner

Search our weather history database for the weather conditions in past years. The results will help you decide how hot, cold, wet, or windy it might be!

Date:

Astronomy

Jan. 27, 2014 Rise Set
Actual Time 7:47 AM PST 5:02 PM PST
Civil Twilight 7:13 AM PST 5:37 PM PST
Nautical Twilight 6:35 AM PST 6:15 PM PST
Astronomical Twilight 5:58 AM PST 6:52 PM PST
Moon 4:38 AM PST (1/27) 1:50 PM PST (1/27)
Length of Visible Light 10h 24m
Length of Day
9h 15m
Waning Crescent, 14% of the Moon is Illuminated
Jan 27
Waning Crescent
Jan 30
New
Feb 6
First Quarter
Feb 14
Full
Feb 22
Last Quarter

Hourly Weather History & Observations

Time (PST) Temp. Windchill Dew Point Humidity Pressure Visibility Wind Dir Wind Speed Gust Speed Precip Events Conditions
12:26 AM 37.9 °F - 37.0 °F 97% 30.15 in 2.5 mi Calm Calm - N/A   Overcast
12:53 AM 37.9 °F 35.5 °F 37.0 °F 97% 30.14 in 2.0 mi NE 3.5 mph - N/A   Overcast
1:05 AM 39.0 °F 36.8 °F 37.0 °F 93% 30.15 in 5.0 mi Variable 3.5 mph - N/A   Overcast
1:53 AM 39.0 °F 34.8 °F 37.9 °F 96% 30.14 in 5.0 mi NNE 5.8 mph - N/A   Overcast
2:40 AM 39.0 °F - 37.9 °F 96% 30.16 in 6.0 mi Calm Calm - N/A   Overcast
2:51 AM 39.2 °F - 37.4 °F 93% 30.16 in 6.0 mi Calm Calm - N/A   Overcast
2:53 AM 39.0 °F - 37.0 °F 93% 30.16 in 6.0 mi Calm Calm - N/A   Overcast
3:53 AM 39.0 °F 36.8 °F 37.0 °F 93% 30.16 in 5.0 mi North 3.5 mph - N/A   Overcast
4:23 AM 39.0 °F - 37.9 °F 96% 30.16 in 5.0 mi Calm Calm - N/A   Overcast
4:53 AM 39.0 °F - 37.9 °F 96% 30.18 in 5.0 mi Calm Calm - N/A   Overcast
5:53 AM 39.9 °F - 37.9 °F 93% 30.18 in 5.0 mi Calm Calm - N/A   Overcast
6:53 AM 39.0 °F 36.8 °F 37.0 °F 93% 30.17 in 6.0 mi NE 3.5 mph - N/A   Overcast
7:53 AM 39.0 °F - 37.0 °F 93% 30.19 in 4.0 mi Calm Calm - N/A   Overcast
8:19 AM 39.0 °F - 37.0 °F 93% 30.19 in 2.5 mi Calm Calm - N/A   Overcast
8:28 AM 39.0 °F - 37.9 °F 96% 30.19 in 3.0 mi Calm Calm - N/A   Overcast
8:53 AM 39.0 °F - 37.9 °F 96% 30.20 in 3.0 mi Calm Calm - N/A   Overcast
9:15 AM 39.9 °F - 37.9 °F 93% 30.20 in 4.0 mi Calm Calm - N/A   Overcast
9:49 AM 39.2 °F - 37.4 °F 93% 30.20 in 4.0 mi Calm Calm - N/A   Overcast
9:53 AM 39.0 °F 35.7 °F 37.0 °F 93% 30.21 in 4.0 mi North 4.6 mph - N/A   Overcast
10:53 AM 41.0 °F - 39.0 °F 93% 30.23 in 5.0 mi Calm Calm - N/A   Overcast
11:11 AM 42.1 °F 39.2 °F 37.9 °F 85% 30.24 in 7.0 mi Variable 4.6 mph - N/A   Overcast
11:27 AM 42.1 °F - 37.9 °F 85% 30.23 in 7.0 mi Calm Calm - N/A   Overcast
11:48 AM 42.8 °F 41.1 °F 37.4 °F 81% 30.22 in 8.0 mi NE 3.5 mph - N/A   Scattered Clouds
11:53 AM 42.1 °F 37.7 °F 37.9 °F 85% 30.22 in 8.0 mi NE 6.9 mph - N/A   Scattered Clouds
12:10 PM 42.1 °F 38.4 °F 37.9 °F 85% 30.22 in 7.0 mi NNE 5.8 mph - N/A   Mostly Cloudy
12:21 PM 42.1 °F 40.2 °F 39.0 °F 89% 30.22 in 7.0 mi NE 3.5 mph - N/A   Scattered Clouds
12:53 PM 43.0 °F - 39.0 °F 86% 30.22 in 8.0 mi Calm Calm - N/A   Scattered Clouds
1:53 PM 43.0 °F 38.8 °F 39.0 °F 86% 30.21 in 8.0 mi North 6.9 mph - N/A   Clear
2:53 PM 43.0 °F 41.3 °F 39.0 °F 86% 30.19 in 10.0 mi North 3.5 mph - N/A   Clear
3:53 PM 43.0 °F - 39.0 °F 86% 30.19 in 10.0 mi Calm Calm - N/A   Clear
4:53 PM 41.0 °F - 37.9 °F 89% 30.19 in 10.0 mi Calm Calm - N/A   Clear
5:53 PM 39.9 °F - 37.0 °F 89% 30.19 in 10.0 mi Calm Calm - N/A   Clear
6:53 PM 39.9 °F - 37.9 °F 93% 30.19 in 10.0 mi Calm Calm - N/A   Clear
7:53 PM 39.0 °F - 37.0 °F 93% 30.20 in 10.0 mi Calm Calm - N/A   Clear
8:53 PM 39.9 °F - 37.9 °F 93% 30.21 in 10.0 mi Calm Calm - N/A   Clear
9:53 PM 39.0 °F 36.8 °F 37.9 °F 96% 30.21 in 10.0 mi SW 3.5 mph - N/A   Partly Cloudy
10:53 PM 39.9 °F - 37.9 °F 93% 30.21 in 10.0 mi Calm Calm - N/A   Mostly Cloudy
11:53 PM 41.0 °F - 39.0 °F 93% 30.22 in 10.0 mi Calm Calm - N/A   Overcast